• In Austria
  • List of Countries
  • For 7 days
  • Water Temperature
  • Satellite Maps
  • Weather Map
  • News
  • Weather Widgets
  • user-avatar
    Login

    Hourly Weather Checheleve

    Today, 21 August, Tuesday

    Time Temperature Precipitation Wind Pressure Humidity
    00:00 +21°C° 0 mm 2 mps 756 mmHg 38%
    01:00 +21°C° 0 mm 2 mps 756 mmHg 39%
    02:00 +22°C° 0 mm 1 mps 755 mmHg 40%
    03:00 +21°C° 0 mm 1 mps 755 mmHg 41%
    04:00 +21°C° 0 mm 1 mps 755 mmHg 42%
    05:00 +21°C° 0 mm 1 mps 755 mmHg 42%
    06:00 +23°C° 0 mm 1 mps 755 mmHg 40%
    07:00 +25°C° 0 mm 1 mps 755 mmHg 37%
    08:00 +27°C° 0 mm 2 mps 756 mmHg 34%
    09:00 +28°C° 0 mm 2 mps 755 mmHg 32%
    10:00 +30°C° 0 mm 2 mps 755 mmHg 29%
    11:00 +31°C° 0 mm 2 mps 755 mmHg 27%
    12:00 +32°C° 0 mm 2 mps 755 mmHg 28%
    13:00 +32°C° 0 mm 2 mps 754 mmHg 28%
    14:00 +34°C° 0 mm 3 mps 754 mmHg 28%
    15:00 +34°C° 0 mm 3 mps 754 mmHg 30%
    16:00 +33°C° 0 mm 3 mps 754 mmHg 32%
    17:00 +33°C° 0 mm 3 mps 753 mmHg 34%
    18:00 +30°C° 0 mm 2 mps 753 mmHg 39%
    19:00 +29°C° 0 mm 2 mps 754 mmHg 43%
    20:00 +27°C° 0 mm 2 mps 754 mmHg 48%
    21:00 +26°C° 0.1 mm 2 mps 754 mmHg 55%
    22:00 +25°C° 0.1 mm 3 mps 754 mmHg 61%
    23:00 +24°C° 0.1 mm 3 mps 754 mmHg 68%

    Tomorrow, 22 August, Wednesday

    Time Temperature Precipitation Wind Pressure Humidity
    00:00 +22°C° 0 mm 3 mps 754 mmHg 72%
    01:00 +21°C° 0 mm 3 mps 755 mmHg 77%
    02:00 +21°C° 0 mm 3 mps 755 mmHg 82%
    03:00 +20°C° 0 mm 3 mps 755 mmHg 84%
    04:00 +19°C° 0 mm 3 mps 755 mmHg 85%
    05:00 +19°C° 0 mm 3 mps 755 mmHg 87%
    06:00 +20°C° 0 mm 3 mps 756 mmHg 79%
    07:00 +21°C° 0 mm 4 mps 756 mmHg 72%
    08:00 +22°C° 0 mm 4 mps 756 mmHg 64%
    09:00 +25°C° 0 mm 5 mps 757 mmHg 58%
    10:00 +26°C° 0 mm 5 mps 757 mmHg 52%
    11:00 +27°C° 0 mm 5 mps 757 mmHg 45%
    12:00 +27°C° 0 mm 5 mps 757 mmHg 43%
    13:00 +28°C° 0 mm 5 mps 757 mmHg 41%
    14:00 +28°C° 0 mm 5 mps 757 mmHg 39%
    15:00 +28°C° 0 mm 5 mps 757 mmHg 40%
    16:00 +27°C° 0 mm 5 mps 757 mmHg 40%
    17:00 +27°C° 0 mm 5 mps 758 mmHg 41%
    18:00 +25°C° 0 mm 4 mps 758 mmHg 45%
    19:00 +22°C° 0 mm 4 mps 758 mmHg 49%
    20:00 +20°C° 0 mm 4 mps 759 mmHg 53%
    21:00 +20°C° 0 mm 3 mps 759 mmHg 54%
    22:00 +19°C° 0 mm 3 mps 759 mmHg 56%
    23:00 +18°C° 0 mm 3 mps 760 mmHg 57%

    Day after tomorrow, 23 August, Thursday

    Time Temperature Precipitation Wind Pressure Humidity
    00:00 +17°C° 0 mm 3 mps 760 mmHg 59%
    01:00 +17°C° 0 mm 3 mps 760 mmHg 60%
    02:00 +16°C° 0 mm 3 mps 760 mmHg 62%
    03:00 +14°C° 0 mm 3 mps 760 mmHg 64%
    04:00 +14°C° 0 mm 3 mps 760 mmHg 65%
    05:00 +13°C° 0 mm 3 mps 760 mmHg 67%
    06:00 +16°C° 0 mm 3 mps 760 mmHg 61%
    07:00 +18°C° 0 mm 3 mps 760 mmHg 56%
    08:00 +20°C° 0 mm 3 mps 761 mmHg 50%
    09:00 +22°C° 0 mm 3 mps 760 mmHg 45%
    10:00 +24°C° 0 mm 3 mps 760 mmHg 39%
    11:00 +26°C° 0 mm 3 mps 760 mmHg 34%
    12:00 +26°C° 0 mm 3 mps 760 mmHg 32%
    13:00 +27°C° 0 mm 3 mps 759 mmHg 29%
    14:00 +28°C° 0 mm 3 mps 759 mmHg 27%
    15:00 +28°C° 0 mm 3 mps 759 mmHg 28%
    16:00 +27°C° 0 mm 3 mps 759 mmHg 28%
    17:00 +27°C° 0 mm 3 mps 758 mmHg 29%
    18:00 +25°C° 0 mm 3 mps 758 mmHg 33%
    19:00 +22°C° 0 mm 3 mps 759 mmHg 37%
    20:00 +20°C° 0 mm 3 mps 759 mmHg 41%
    21:00 +19°C° 0 mm 3 mps 759 mmHg 42%
    22:00 +19°C° 0 mm 3 mps 759 mmHg 44%
    23:00 +18°C° 0 mm 3 mps 759 mmHg 46%

    24 August, Friday

    Time Temperature Precipitation Wind Pressure Humidity
    00:00 +17°C° 0 mm 3 mps 759 mmHg 48%
    01:00 +17°C° 0 mm 3 mps 759 mmHg 50%
    02:00 +16°C° 0 mm 3 mps 759 mmHg 52%
    03:00 +16°C° 0 mm 3 mps 759 mmHg 53%
    04:00 +14°C° 0 mm 3 mps 759 mmHg 54%
    05:00 +14°C° 0 mm 3 mps 758 mmHg 56%
    06:00 +17°C° 0 mm 3 mps 758 mmHg 51%
    07:00 +19°C° 0 mm 3 mps 758 mmHg 46%
    08:00 +21°C° 0 mm 3 mps 758 mmHg 42%
    09:00 +23°C° 0 mm 4 mps 758 mmHg 36%
    10:00 +26°C° 0 mm 4 mps 758 mmHg 31%
    11:00 +28°C° 0 mm 4 mps 758 mmHg 26%
    12:00 +29°C° 0 mm 4 mps 757 mmHg 24%
    13:00 +29°C° 0 mm 4 mps 757 mmHg 23%
    14:00 +30°C° 0 mm 4 mps 756 mmHg 21%
    15:00 +30°C° 0 mm 3 mps 756 mmHg 23%
    16:00 +29°C° 0 mm 3 mps 756 mmHg 24%
    17:00 +29°C° 0 mm 3 mps 755 mmHg 25%
    18:00 +27°C° 0 mm 3 mps 755 mmHg 29%
    19:00 +25°C° 0 mm 3 mps 755 mmHg 32%
    20:00 +22°C° 0 mm 3 mps 756 mmHg 35%
    21:00 +21°C° 0 mm 3 mps 755 mmHg 37%
    22:00 +21°C° 0 mm 4 mps 755 mmHg 38%
    23:00 +20°C° 0 mm 4 mps 755 mmHg 39%

    25 August, Saturday

    Time Temperature Precipitation Wind Pressure Humidity
    00:00 +19°C° 0 mm 4 mps 755 mmHg 40%
    01:00 +19°C° 0 mm 4 mps 755 mmHg 41%
    02:00 +19°C° 0 mm 4 mps 755 mmHg 41%
    03:00 +18°C° 0 mm 3 mps 755 mmHg 42%
    04:00 +18°C° 0 mm 3 mps 755 mmHg 42%
    05:00 +17°C° 0 mm 3 mps 755 mmHg 43%
    06:00 +19°C° 0 mm 4 mps 755 mmHg 40%
    07:00 +21°C° 0 mm 4 mps 755 mmHg 38%
    08:00 +23°C° 0 mm 4 mps 755 mmHg 35%
    09:00 +26°C° 0 mm 5 mps 755 mmHg 32%
    10:00 +28°C° 0 mm 5 mps 755 mmHg 29%
    11:00 +32°C° 0 mm 5 mps 754 mmHg 26%
    12:00 +32°C° 0 mm 4 mps 754 mmHg 25%
    13:00 +33°C° 0 mm 4 mps 754 mmHg 24%
    14:00 +33°C° 0 mm 4 mps 753 mmHg 23%
    15:00 +33°C° 0 mm 4 mps 753 mmHg 24%
    16:00 +33°C° 0 mm 3 mps 753 mmHg 26%
    17:00 +31°C° 0 mm 3 mps 753 mmHg 27%
    18:00 +29°C° 0 mm 3 mps 753 mmHg 29%
    19:00 +27°C° 0 mm 3 mps 753 mmHg 32%
    20:00 +25°C° 0 mm 3 mps 753 mmHg 34%
    21:00 +24°C° 0 mm 3 mps 753 mmHg 35%
    22:00 +22°C° 0 mm 3 mps 753 mmHg 36%
    23:00 +21°C° 0 mm 3 mps 753 mmHg 37%

    26 August, Sunday

    Time Temperature Precipitation Wind Pressure Humidity
    00:00 +21°C° 0 mm 3 mps 753 mmHg 37%
    01:00 +20°C° 0 mm 3 mps 753 mmHg 38%
    02:00 +19°C° 0 mm 3 mps 753 mmHg 39%
    03:00 +19°C° 0 mm 3 mps 753 mmHg 38%
    04:00 +18°C° 0 mm 3 mps 753 mmHg 38%
    05:00 +18°C° 0 mm 3 mps 753 mmHg 38%
    06:00 +19°C° 0 mm 4 mps 753 mmHg 36%
    07:00 +21°C° 0 mm 4 mps 754 mmHg 34%
    08:00 +23°C° 0 mm 4 mps 754 mmHg 32%
    09:00 +26°C° 0 mm 5 mps 753 mmHg 30%
    10:00 +28°C° 0 mm 5 mps 753 mmHg 28%
    11:00 +30°C° 0 mm 5 mps 753 mmHg 26%
    12:00 +32°C° 0 mm 5 mps 752 mmHg 26%
    13:00 +33°C° 0 mm 5 mps 752 mmHg 25%
    14:00 +33°C° 0 mm 5 mps 752 mmHg 24%
    15:00 +33°C° 0 mm 5 mps 752 mmHg 25%
    16:00 +33°C° 0 mm 4 mps 751 mmHg 26%
    17:00 +32°C° 0 mm 4 mps 751 mmHg 27%
    18:00 +29°C° 0 mm 4 mps 751 mmHg 30%
    19:00 +27°C° 0 mm 3 mps 751 mmHg 33%
    20:00 +25°C° 0 mm 3 mps 751 mmHg 36%
    21:00 +25°C° 0 mm 3 mps 751 mmHg 37%
    22:00 +24°C° 0 mm 3 mps 751 mmHg 38%
    23:00 +24°C° 0 mm 3 mps 751 mmHg 39%
    Show more